This is the latest recevied weather packets stored in our database for station/object KD4PMP. If no packets are shown the sender has not sent any weather packets the latest 10 day(s).
| Time | Temp. | Humidity | Pressure | Rain* | Wind** | Luminosity | Snow |
|---|---|---|---|---|---|---|---|
| 1777524013 | 15° C | 75% | 1014.1 hPa | 0 mm | - | - | - |
| 1777523412 | 15.56° C | 75% | 1013.9 hPa | 0 mm | - | - | - |
| 1777522812 | 15.56° C | 75% | 1013.7 hPa | 0 mm | - | - | - |
| 1777522212 | 15.56° C | 74% | 1014.3 hPa | 0 mm | - | - | - |
| 1777521611 | 15.56° C | 74% | 1014.3 hPa | 0 mm | - | - | - |
| 1777521011 | 15.56° C | 74% | 1014 hPa | 0 mm | - | - | - |
| 1777520411 | 16.11° C | 75% | 1014.1 hPa | 0 mm | - | - | - |
| 1777519811 | 16.11° C | 75% | 1014.2 hPa | 0 mm | - | - | - |
| 1777519210 | 16.11° C | 75% | 1014.2 hPa | 0 mm | - | - | - |
| 1777518610 | 16.11° C | 75% | 1013.7 hPa | 0 mm | - | - | - |
| 1777518010 | 16.67° C | 75% | 1013.8 hPa | 0 mm | - | - | - |
| 1777517409 | 16.67° C | 75% | 1014 hPa | 0 mm | - | - | - |
| 1777516809 | 16.67° C | 76% | 1014.1 hPa | 0 mm | - | - | - |
| 1777516209 | 16.67° C | 77% | 1013.7 hPa | 0 mm | - | - | - |
| 1777515609 | 16.67° C | 77% | 1013.4 hPa | 0 mm | - | - | - |
| 1777515008 | 16.67° C | 78% | 1013.4 hPa | 0 mm | - | - | - |
| 1777514408 | 16.67° C | 78% | 1013.4 hPa | 0 mm | - | - | - |
| 1777513807 | 16.67° C | 78% | 1013.4 hPa | 0 mm | - | - | - |
| 1777512007 | 17.22° C | 79% | 1012.7 hPa | 0 mm | - | - | - |
| 1777511406 | 17.22° C | 80% | 1012.7 hPa | 0 mm | - | - | - |
| 1777510206 | 17.78° C | 80% | 1012.3 hPa | 0 mm | - | - | - |
| 1777507805 | 19.44° C | 75% | 1011.9 hPa | 0 mm | - | - | - |
| 1777505404 | 20° C | 69% | 1011.9 hPa | 0 mm | - | - | - |
| 1777502403 | 20.56° C | 70% | 1012 hPa | 0 mm | - | - | - |
| 1777498200 | 19.44° C | 76% | 1012.2 hPa | 0 mm | - | - | - |
* Rain latest hour (hover to see other rain measurements)
** Current wind speed in m/s (hover to see current wind gust speed)